THORAD AGENA D DEB, 4973

Orbit data source: Space-Track

THORAD AGENA D DEB, 4973 is space debris in SSO originally from a launch on Wed, 08 Apr 1970 UTC launched from the Air Force Western Test Range (AFWTR). Debris objects in space refer to the collection of defunct objects orbiting the Earth. Examples of debris include non-operational satellites, rocket bodies, and fragments generated from explosions, collisions, or faulty payload assembly.

Loading next visibility...
Identifier
4973, 1970-025GT
Orbit
SSO
Country
Flag of USUS
Related business
Manufacturer
Unknown
Mission
Spacecraft
Bus & Motor
Unknown
Mass
Unknown
Launch date (UTC)
1970-04-08 (56 years ago)
Launch vehicle
Unknown
Launch site
Air Force Western Test Range (AFWTR)
Object type
Payload
Rocket body
Debris
Shape & HBR
Unknown shape, 0.1 m
Radar Cross Section
Small (<0.1 m²)

Expand to show TLE details & history
Last TLE update: 1 day ago

TLE from 1 day ago
0 THORAD AGENA D DEB
1 04973U 70025GT  26124.30984519  .00001229  00000-0  75401-3 0  9995
2 04973 100.0266 264.3901 0091573 112.6163 248.4719 14.05881910833848
Epoch: 2026-05-04T07:26Z
TLE epoch observation values (Epoch: 2026-05-04T07:26:10.624Z)
Latitude
-0.00003°
Longitude
-69.35505°
Altitude
901.245 km
Speed
7.389 km/s
True Right ascension
17h 37m 33s
True Declination
0° 00' 00"
Sunlit
Object was in full shadow at epoch
Visualization orbit readout
Latitude
Unknown
Longitude
Unknown
Altitude
Unknown
Speed
Unknown
Apparent Right ascension
Unknown
Apparent Declination
Unknown
Sunlit
N/A
Visualization observer readout
Local Sidereal Time
18:48:44
Azimuth
Unknown
Elevation
Unknown
Doppler factor
Unknown
Orbital elements
Apogee altitude
937.123 km
Perigee altitude
804.362 km
Semi-major axis
7,248.88 km
Eccentricity
0.00916
Inclination
100.0266°
RAAN
264.3901°
Arg. of periapsis
112.6163°
True anomaly
247.49989°
Mean anomaly
248.4719°
Eccentric anomaly
247.98548°
Mean motion
3.51671 °/min
Orbital period
102.37 mins
BSTAR
0.00075401
Loading maneuver chart data...
Computing Atmospheric mass density...
Loading historical data...
Loading historical data...
Loading historical data...
Loading historical data...
Loading historical data...
Loading historical data...
Loading historical data...

Documentation

Showing up to 5 results
|